Regional Weather Roundup
Issued by NWS

Home | Current Version | Previous Version | Text Only | Print | Product List | Glossary On
Versions: 1 2 3 4 5 6 7 8 9 10 11 12 13 14 15 16 17 18 19 20 21 22 23 24 25 26 27 28 29 30 31 32 33 34 35 36 37 38 39 40 41 42 43 44 45 46 47 48 49 50
000
ASHW40 PHFO 250430
RWRHI

WEATHER ROUNDUP FOR HAWAII
NATIONAL WEATHER SERVICE HONOLULU HI
600 PM HST FRI OCT 24 2014

THIS IS AN AUTOMATED REPORT THAT HAS NOT BEEN QUALITY CONTROLLED.

NOTE..."FAIR" INDICATES FEW OR NO CLOUDS BELOW 12,000 FEET WITH NO
SIGNIFICANT WEATHER AND/OR OBSTRUCTIONS TO VISIBILITY.

* - THESE SITES REPORT LIMITED FIELDS

HIZ001>004-250500-
KAUAI-NIIHAU-

CITY           SKY/WX    TMP DP  RH WIND       PRES   REMARKS
LIHUE APT      PTCLDY    80  70  71 E12       30.03R
PORT ALLEN*      N/A     81 N/A N/A E13G18      N/A
POIPU*           N/A     81 N/A N/A NE8G15      N/A
PRINCEVILLE*     N/A     79 N/A N/A MISG        N/A
KOKOLE POINT*    N/A     81 N/A N/A MISG        N/A
MOLOAA DAIRY*  NOT AVBL
WAIMEA HTS*    NOT AVBL
PUU OPAE*      NOT AVBL
PUU LUA*       NOT AVBL
MAKAHA RIDGE*  NOT AVBL
$$

HIZ005>011-250500-
OAHU-

CITY           SKY/WX    TMP DP  RH WIND       PRES   REMARKS
HONOLULU       PTCLDY    81  70  69 E13       30.00R
KALAELOA       PTCLDY    79  68  69 VRB5      30.02R
KANEOHE MCB    PTCLDY    80  70  71 VRB7G17   30.02R
WHEELER FIELD  FAIR      77  68  72 NE5       30.03
BELLOWS*         N/A    N/A N/A N/A E16         N/A
KAHUKU*          N/A    N/A N/A N/A E8G14       N/A
WHEELER*       NOT AVBL
WAIANAE HARBOR NOT AVBL
DILLINGHAM*      N/A     79  66  65 E3G12       N/A
KAHUKU TRN*      N/A     77  72  83 E7G17       N/A
KAWAILOA*        N/A     73  70  88 E12G22      N/A
KII*             N/A     81  72  74 E15G22      N/A
MAKUA RANGE*     N/A     79  68  69 E5          N/A
OAHU FOREST NW NOT AVBL
SCHOFIELD BRK*   N/A     77  68  73 MISG        N/A
SCHOFIELD S*   NOT AVBL
WAIANAE VLY*   NOT AVBL
KUAOKALA*      NOT AVBL
HONOULIUULI*   NOT AVBL
MOKUOLOE IS*     N/A    N/A N/A N/A MISG        N/A
PALEHUA*       NOT AVBL
WAIAWA PHB*    NOT AVBL
$$

HIZ012>013-250500-
MOLOKAI-

CITY           SKY/WX    TMP DP  RH WIND       PRES   REMARKS
MOLOKAI AIRPT  PTCLDY    78  73  84 NE13G21   30.01R
KALAUPAPA      NOT AVBL
MAKAPULAPAI*   NOT AVBL
MOLOKAI 1*     NOT AVBL
PUU ALII*        N/A     63  61  94 E2G10       N/A
$$

HIZ016-250500-
KAHOOLAWE-

CITY           SKY/WX    TMP DP  RH WIND       PRES   REMARKS
KAHOOLAWE*     NOT AVBL
HAKIOAWA*      NOT AVBL
HONOKANAIA*      N/A     81  62  52 NE10G24     N/A
KANELOA*         N/A     79  66  65 E17G31    29.22
KEALIALALO*    NOT AVBL
LUA MAKIKA*    NOT AVBL
$$

HIZ014>015-250500-
LANAI-

CITY           SKY/WX    TMP DP  RH WIND       PRES   REMARKS
LANAI CITY     FAIR      74  69  84 NE12      30.05R
LANAI 1*       NOT AVBL
$$

HIZ017>028-250500-
MAUI-

CITY           SKY/WX    TMP DP  RH WIND       PRES   REMARKS
KAHULUI        PTCLDY    80  66  62 NE15      29.99R
KAPALUA-W MAUI PTCLDY    79  68  69 NE14G23   29.98R
HANA AIRPORT   MOCLDY    73  70  88 CALM      30.06R
HANA*            N/A     77 N/A N/A S3          N/A
HALEAKALA SUMM   N/A     43  14  31 SE35        N/A
MAALAEA BAY*   NOT AVBL
HALEAKALA*     NOT AVBL
KAUPO GAP*     NOT AVBL
KULA 1*          N/A     58  53  82 N5G15       N/A
$$

HIZ023>026-250500-
BIG ISLAND OF HAWAII COAST AND LOWER SLOPES-

CITY           SKY/WX    TMP DP  RH WIND       PRES   REMARKS
KAILUA KONA    MOCLDY    82  71  69 S6        29.97R
HILO           CLEAR     78  70  76 E3        30.02R
HONOKAA*       NOT AVBL
KAWAIHAE MWT*    N/A     84 N/A N/A SW2         N/A
KAWAIHAE*        N/A     82 N/A N/A W2          N/A
SOUTH POINT*     N/A     73 N/A N/A E13G18      N/A
UPOLU AIRPORT*   N/A    N/A N/A N/A NE16G22     N/A
KAMUELA*       PTCLDY    66  64  94 NE15      30.12R
HAKALAU*         N/A     52  45  78 SW5         N/A
KALOKO-HONOKO*   N/A     81  70  69 SW3       29.97R
PALI 2*          N/A    N/A N/A N/A NE13G21     N/A
KEALAKOMO*       N/A     81  68  65 E16G24      N/A
KAUPULEHU*     NOT AVBL
KAPAPALA*        N/A     72  69  89 E1G15       N/A
LOWER KAHUKU*  NOT AVBL
PUHE CS*       NOT AVBL
PUHO CS*         N/A     80  68  65 N2          N/A
PTA KEAMUKU*     N/A     66  63  88 NE9G16      N/A
WAIKOLOA*      NOT AVBL
$$

HIZ027>028-250500-
BIG ISLAND OF HAWAII INTERIOR AND SUMMMITS-

CITY           SKY/WX    TMP DP  RH WIND       PRES   REMARKS
BRADSHAW FIELD CLEAR     58  53  82 W3        30.35R
MK VISITOR CEN NOT AVBL
MAUNA KEA*       N/A     36 -13  12 SE18        N/A  WCI  25
MAUNA LOA*       N/A     46  -4  12 MISG        N/A
MAUNA LOA 1*     N/A    N/A N/A N/A MISG        N/A
PTA KIPUKA*      N/A     63  59  88 NW3G12      N/A
PTA RANGE 17*    N/A     68  63  83 SW6G12      N/A
PTA WEST*        N/A     63  63 100 NW7         N/A
NENE CABIN*      N/A     54  54 100 E6G12       N/A
AHUMOA*        NOT AVBL
PTA PORTABLE*  NOT AVBL
PUU MALI*      NOT AVBL
$$

HIC003-250500-
NORTHWEST ISLANDS-

CITY           SKY/WX    TMP DP  RH WIND       PRES   REMARKS
MIDWAY ISLAND  MOSUNNY   82  72  69 W8        29.93R
MIDWAY NOS*    NOT AVBL
FRENCH FRIGATE NOT AVBL
$$

PHZ110>124-180-250500-
BUOY REPORTS

STATION/POSITION TIME  TEMP    WIND        PRES    WAVE   SWELL
                       AIR SEA DIR/SP/G            HT/PER HT/DIR
                 (UTC) (F)     (DEG/KT/KT) (MB)    (FT/S) (FT/D)
BUOY 51001       NOT AVBL
BUOY 51101       NOT AVBL
BUOY 51100       0400   78 80   70/ 16/ 19 1017.4
BUOY 51003       0400   81 82   70/ 12/ 14 1014.7R   5/11   5
BUOY 51004       0336   80 81   60/ 16/ 17 1014.4R   6/14   5/340
BARBERS PT BUOY  NOT AVBL
WAIMEA BAY BUOY  0400      81                N/A     5/11
KAILUA BAY BUOY  0400      82                N/A     6/ 6   2/350
LANAI BUOY       0400      82                N/A     3/12   2/210
BARBERS PT 2     0400      82                N/A     4/12   3/200
PAUWELA MAUI     0400      81                N/A     5/11   3/340
HILO             0400      81                N/A     5/ 8   2/340
KANEOHE BAY BUOY NOT AVBL
HANALEI KAUAI    NOT AVBL
KAHULUI HARBOR   0400   80 81   50/ 18/ 22 1015.4R
HONOLULU HARBOR  0400   80      50/  5/  9 1016.5R
KILO NALU        NOT AVBL
HILO HARBOR      0400   80      80/  2/  3 1016.1R
MOKUOLOE         0400      83              1016.7R
NAWILIWILI       0400      82                N/A
WHOTS BUOY       NOT AVBL
BUOY 51028       NOT AVBL
$$

......................KEY........................................
  SKY/WX - SKY CONDITIONS/PRESENT WEATHER
  TMP    - TEMPERATURE IN FAHRENHEIT
  DWPT   - DEWPOINT IN FAHRENHEIT
  RH     - RELATIVE HUMIDITY IN PERCENT
  WIND   - DIRECTION AND SPEED /MPH FOR ISLANDS...KTS FOR BUOYS/
  PRES   - MEAN SEA LEVEL PRESSURE IN INCHES OF HG
  VSB    - VISIBILITY IN MILES
  HX     - HEAT INDEX
  WCI    - WIND CHILL INDEX
  VRB    - VARIABLE WIND DIRECTION
  N/A    - NOT AVAILABLE



USA.gov is the U.S. government's official web portal to all federal, state and local government web resources and services.